Vorticity
4 8 14 20 20 15 13 9 7 5 5 8 9 8 5 6 9 9 10 12 13 12 11 12 11 11 11 10 10 10 9 9 8 9 9 8 8 9 9 8 8 8 7 7 7 7 7 7 7 8 8 9 9 8 7 7 6 6 6 6 6 6 6 7 7 7 7 7 7 7 7 7 7 8 10 9 9 8 8 9 7 8 8 7 7 14 9 12 32 13 -1 10 10 6 3 16 5
7 13 16 16 12 9 9 6 4 4 6 9 6 4 5 8 9 8 8 9 11 11 11 11 11 10 9 9 9 10 10 9 9 10 10 9 8 8 9 9 7 7 6 6 6 6 6 7 8 8 8 8 8 9 8 8 7 7 7 6 6 6 6 7 7 7 7 7 6 7 7 7 7 9 9 9 9 10 9 8 8 7 7 8 4 11 10 9 25 15 -1 3 16 12 1 13 3
11 14 12 10 9 9 11 9 7 8 10 8 5 6 6 6 6 8 8 8 9 10 10 10 9 8 8 10 10 10 10 10 10 10 9 8 8 7 8 8 7 7 7 6 6 6 6 7 7 8 8 8 9 8 8 8 8 8 8 7 7 7 7 7 7 7 7 7 7 7 7 7 8 10 11 11 11 10 10 8 8 8 7 8 7 6 -0 -5 -3 -2 6 9 10 -0 -16 -8 -0
12 11 7 6 7 7 9 11 10 11 12 8 7 5 3 3 6 8 7 7 8 7 8 7 8 8 9 8 8 10 11 10 10 8 8 8 8 8 7 7 7 7 7 7 7 8 8 8 9 9 10 10 10 9 9 9 8 8 8 7 7 7 7 6 6 6 7 7 7 7 7 8 8 10 12 12 12 9 8 8 7 7 8 7 8 7 1 -5 -18 -21 1 11 6 -1 -13 -10 4
11 9 5 4 5 6 6 8 9 12 13 9 7 5 5 5 6 8 7 7 7 6 7 7 7 7 7 7 7 9 8 7 7 6 7 8 9 9 8 8 8 9 9 9 10 10 10 11 10 10 10 9 9 9 8 8 7 7 7 7 7 7 7 7 7 6 7 7 8 7 7 8 9 10 12 12 11 10 8 7 8 8 8 8 7 8 6 4 -1 -13 -22 -23 -16 -8 -3 3 5
9 8 5 5 6 6 6 7 8 10 12 9 7 6 7 5 5 7 8 9 9 8 9 8 6 6 6 5 6 5 3 3 4 5 8 10 11 10 9 9 9 10 11 11 11 10 10 9 9 8 7 7 7 7 7 7 7 7 7 7 8 8 8 8 8 7 7 8 8 7 7 8 9 10 11 10 8 7 7 7 8 8 9 9 8 8 8 6 7 4 -9 -12 -9 -11 -4 1 -4
7 6 5 5 6 6 6 7 7 8 8 9 9 7 6 6 6 8 10 10 9 9 9 8 7 7 5 3 4 2 2 3 4 5 7 9 10 10 10 10 10 9 9 9 8 8 7 6 6 6 6 6 6 6 6 7 6 7 7 7 8 8 9 9 8 9 8 8 8 8 8 9 9 10 10 8 8 7 7 9 9 9 10 11 11 9 10 9 8 8 7 9 8 4 6 5 -0
6 5 5 5 6 5 4 5 6 8 6 8 9 7 8 7 5 6 8 8 7 7 7 7 7 8 6 6 7 4 6 8 7 7 7 7 7 8 8 8 7 7 6 6 6 5 5 5 5 5 5 5 5 6 6 6 6 6 7 7 7 7 8 9 9 9 9 9 9 9 8 9 10 9 9 9 9 8 7 8 8 8 9 9 10 10 10 10 9 9 8 8 9 10 11 12 12
5 5 4 5 6 5 3 3 4 5 5 7 7 8 10 8 5 4 4 5 6 5 5 5 6 8 7 8 7 4 6 7 7 9 10 9 7 6 5 5 5 5 5 5 5 5 4 4 3 3 3 3 4 4 4 4 4 4 5 5 5 6 7 7 9 9 10 9 9 10 9 9 10 8 9 10 7 6 6 7 7 7 8 7 7 7 8 7 8 8 8 8 8 7 8 9 10
5 5 4 6 7 5 4 3 3 3 4 5 6 9 11 10 8 6 5 5 5 6 6 5 6 6 6 6 3 2 4 4 6 7 7 7 6 6 5 5 5 5 5 4 5 5 4 4 3 3 3 4 4 4 3 3 3 3 3 4 4 5 5 6 8 9 10 10 9 10 9 9 10 9 10 9 6 5 5 6 6 4 5 6 6 5 6 7 7 7 8 8 7 7 7 7 7
6 6 5 6 7 5 4 4 4 4 4 4 6 8 9 9 10 9 9 8 8 9 8 7 7 6 6 5 3 3 5 5 6 5 5 6 7 7 7 6 5 5 5 4 4 3 4 4 4 4 4 4 4 4 4 4 4 5 5 5 5 5 5 6 7 8 10 10 10 9 9 8 9 10 9 8 6 5 5 4 3 5 6 5 6 7 7 7 8 8 8 8 7 8 8 8 8
7 6 5 6 7 5 4 5 4 4 4 5 6 6 5 6 7 8 9 9 8 9 8 8 9 9 8 7 5 5 6 7 7 7 7 7 6 5 5 6 6 7 7 6 6 5 5 5 5 5 5 5 5 6 6 7 7 7 6 6 6 6 6 6 7 8 9 9 10 10 8 8 10 10 8 7 5 4 5 3 3 3 3 5 8 8 7 6 7 8 7 7 7 7 8 8 8
7 6 5 6 7 4 3 4 3 4 5 6 7 5 5 5 5 5 7 8 7 7 7 7 7 7 8 7 6 5 7 8 8 8 7 6 6 5 6 6 6 7 7 7 6 6 6 6 6 6 6 6 6 6 6 7 7 7 8 8 8 8 8 7 7 8 8 10 10 10 9 8 10 10 7 5 4 4 3 3 4 3 4 7 7 5 5 6 5 6 6 6 5 5 6 6 6
8 7 5 6 5 2 3 4 5 8 8 7 6 5 7 6 5 5 5 6 7 7 6 7 7 6 7 7 6 7 9 8 7 7 6 6 6 6 7 7 8 7 7 6 6 6 7 6 6 5 5 5 5 5 6 6 6 6 7 7 7 8 9 9 8 8 8 10 10 10 10 9 10 8 5 4 4 3 2 2 0 1 2 3 7 8 3 3 4 4 5 5 4 5 5 6 6
9 7 5 5 4 3 5 7 9 12 10 9 7 6 6 5 5 6 5 4 5 5 5 5 5 5 6 6 6 7 8 8 7 7 6 6 6 8 9 9 9 9 8 8 8 8 8 8 7 7 7 7 7 7 6 6 6 5 5 6 6 7 8 8 8 8 9 9 10 11 10 9 9 6 4 4 4 3 3 4 5 6 6 8 8 -1 -5 1 5 4 4 4 4 5 6 6 6
9 7 6 5 4 5 8 10 11 11 9 9 9 7 6 5 6 7 6 4 2 3 4 3 2 3 4 4 5 6 7 6 6 5 5 6 6 6 6 7 7 7 8 8 8 8 8 8 8 9 9 9 9 8 8 7 7 6 6 6 6 7 7 7 8 8 9 9 10 11 10 8 8 6 5 4 2 2 2 2 8 11 18 32 15 -12 -5 10 7 3 3 3 2 4 5 5 4
9 7 6 5 5 7 8 8 7 7 8 9 8 8 8 7 7 8 7 5 4 4 4 2 2 3 4 4 4 3 4 3 3 3 4 5 4 4 4 5 5 4 5 5 5 6 6 6 6 7 7 8 8 8 8 8 8 8 8 7 7 7 8 8 8 9 10 10 11 11 10 9 8 7 5 4 2 3 2 1 3 -2 0 14 1 -13 2 8 2 3 3 1 2 3 4 3 1
8 7 6 5 6 7 6 6 6 7 7 7 7 8 8 7 8 9 8 7 7 6 3 3 3 4 5 5 4 3 3 2 2 3 3 4 3 3 4 3 3 2 2 2 2 3 3 2 3 5 5 5 6 6 7 7 7 8 8 8 8 7 7 8 8 9 9 11 13 13 10 9 8 6 5 3 3 4 3 2 1 -2 -2 -2 -7 -3 4 2 2 3 1 1 1 1 2 2 1
7 6 6 6 6 6 5 5 6 6 6 6 7 8 8 8 8 7 7 8 8 5 3 4 5 5 6 6 6 6 5 4 4 5 4 4 3 3 3 3 3 3 3 4 4 5 4 5 5 6 6 6 6 6 7 7 6 6 7 7 8 8 8 8 8 8 9 10 12 14 12 10 8 7 5 2 3 3 3 3 -0 -0 3 1 1 3 2 2 4 2 2 3 1 1 1 1 2
7 6 6 6 6 6 3 3 5 5 6 6 7 8 9 9 9 8 7 8 7 5 4 6 6 6 6 6 7 8 7 8 8 7 7 6 7 7 7 7 7 7 7 7 8 8 8 8 8 8 8 7 8 8 8 8 7 7 7 7 7 8 8 8 9 9 8 9 10 13 14 12 9 6 6 3 1 1 1 3 3 2 2 -0 2 4 4 4 3 3 3 2 1 1 1 2 2
8 5 6 6 6 5 2 3 5 5 7 7 7 9 10 11 12 11 11 10 7 7 6 5 6 7 7 6 7 8 8 8 8 8 8 8 8 8 8 8 8 8 8 8 8 9 8 8 9 9 9 9 9 10 9 9 9 9 8 8 9 8 8 8 8 8 7 8 9 10 12 12 11 8 6 4 2 1 0 0 1 2 2 2 3 4 5 5 4 4 2 2 3 2 2 2 2
7 6 7 6 5 5 2 2 5 6 7 7 7 9 10 11 12 13 14 13 9 10 11 10 8 8 7 8 8 7 7 7 7 7 7 7 7 6 7 7 8 8 8 8 8 8 9 10 10 10 10 10 10 9 9 9 9 9 9 9 9 9 9 9 9 8 7 7 8 9 9 10 11 10 8 7 5 3 2 2 1 2 2 3 3 4 5 5 4 4 3 3 3 3 3 3 2
5 6 7 5 5 4 3 3 5 6 7 7 8 9 9 11 13 13 13 13 12 14 17 17 14 12 11 11 9 9 9 8 8 9 9 9 8 9 11 12 15 16 15 15 16 16 16 16 15 15 14 13 12 12 12 11 10 10 10 9 9 9 9 9 10 10 9 8 8 8 9 9 9 10 9 8 7 6 5 4 3 3 4 3 3 4 4 4 5 4 5 4 4 5 4 4 3
5 7 6 5 5 4 4 5 5 5 6 6 7 8 8 10 13 12 9 8 10 10 10 12 12 12 12 11 12 12 12 13 13 13 13 14 14 16 18 18 19 20 19 18 19 18 15 14 14 12 11 10 10 12 12 11 10 11 11 11 10 9 8 9 9 10 10 9 9 8 9 9 8 8 8 8 8 7 7 7 6 6 6 6 6 6 6 6 7 6 6 6 6 6 5 5 5
6 8 6 5 4 4 5 5 6 6 6 7 7 9 8 8 12 12 9 5 6 6 5 7 9 9 10 12 13 14 15 15 16 18 19 18 17 17 15 12 11 11 11 9 8 6 5 6 4 2 3 4 5 6 7 6 6 7 8 9 9 9 9 9 9 10 11 10 9 9 9 8 8 7 6 7 8 7 8 7 7 8 8 9 9 10 10 10 9 8 8 7 7 6 6 6 6
7 7 6 5 5 4 5 5 6 6 7 9 6 8 8 5 7 10 10 5 3 5 7 8 8 8 7 9 11 11 14 13 12 17 17 11 8 8 6 4 3 2 1 -0 -1 -2 -1 -0 -1 -0 2 3 2 2 2 2 3 4 4 5 5 7 8 8 8 10 12 13 11 10 10 9 9 8 7 6 5 6 7 8 8 7 8 9 9 9 10 10 11 11 10 9 9 7 7 6 6
7 7 6 6 5 3 4 5 6 7 7 7 5 6 8 5 5 8 10 8 7 9 7 7 7 8 5 5 6 5 8 8 5 8 5 -2 -1 4 3 0 0 -0 -1 -2 -2 -2 -1 -0 -0 1 2 2 2 1 1 1 1 1 1 1 1 1 2 3 5 7 9 12 12 12 12 11 10 9 9 8 7 6 5 5 6 6 7 7 9 10 10 11 11 12 12 11 11 10 10 9 8
7 7 6 6 5 4 5 5 6 7 6 6 6 6 5 4 4 8 11 10 10 9 5 5 5 6 6 4 4 2 2 3 1 1 -2 -3 1 3 1 -1 -0 0 -0 -1 -1 1 2 3 3 2 3 3 3 3 3 3 2 2 3 3 2 1 0 -1 -1 1 2 5 7 10 12 13 13 12 10 9 8 9 8 7 6 6 5 7 13 12 6 7 9 13 14 12 12 11 10 10 10
7 7 7 6 7 5 4 6 6 5 6 7 5 5 5 3 4 6 9 7 5 5 4 4 4 5 5 3 3 1 1 1 0 -0 -1 1 2 0 0 0 1 1 1 1 1 2 3 4 3 2 2 2 2 3 4 4 4 4 5 5 6 6 5 5 3 2 1 -0 1 3 6 9 13 14 13 12 9 8 9 9 9 8 6 7 9 4 -0 4 6 10 10 8 8 10 11 12 12
6 6 5 5 6 5 4 5 5 4 6 8 5 6 5 0 5 7 4 3 1 3 4 4 7 8 5 2 1 2 2 1 -1 0 2 3 1 0 1 1 1 1 1 1 2 2 3 3 2 2 2 2 1 1 2 2 2 3 4 4 5 5 6 8 7 7 6 4 2 1 0 2 7 11 13 14 13 10 8 9 11 12 11 10 7 4 8 12 10 9 7 6 9 9 10 12 14
6 5 4 5 6 5 6 5 4 4 5 7 5 7 1 -6 7 11 2 2 4 5 6 6 7 8 6 2 1 3 1 -1 -1 2 3 1 1 2 1 1 2 2 2 3 3 3 3 2 1 1 2 2 2 2 2 1 2 4 5 4 3 3 5 7 6 6 6 5 5 5 2 0 1 5 9 11 14 13 9 7 8 10 11 12 11 9 11 12 11 10 4 4 8 7 7 10 13
5 6 5 6 5 5 7 7 4 3 6 6 5 8 1 -6 7 13 5 5 8 7 5 6 6 6 7 3 0 3 1 -1 1 2 2 1 2 2 2 3 2 2 3 4 4 3 3 2 1 1 2 2 2 2 2 2 4 5 3 3 3 3 2 2 3 4 4 4 5 5 4 2 1 2 4 6 11 16 14 9 7 8 9 11 13 12 9 7 6 5 2 3 6 6 6 8 10
7 6 6 5 5 5 6 7 3 3 8 6 5 7 1 -5 4 10 9 10 9 5 3 6 9 8 6 4 1 1 1 1 1 1 1 2 2 2 2 3 1 0 2 3 4 2 2 3 2 2 2 2 2 1 2 2 3 2 0 1 2 3 2 2 3 4 5 4 4 5 5 4 4 4 4 5 8 13 15 12 7 6 7 8 10 11 12 12 8 5 4 5 6 7 7 6 5
6 4 5 4 5 5 4 7 5 4 8 6 7 8 1 0 5 8 13 15 11 6 5 7 9 9 6 4 3 1 1 2 1 -0 1 2 2 2 2 2 0 -1 1 2 2 1 2 3 3 3 2 2 2 2 2 3 2 1 1 2 3 2 2 2 3 3 4 4 4 5 6 7 9 9 8 8 10 12 14 15 11 7 6 6 7 9 10 10 8 7 7 7 7 7 6 7 6
4 4 5 4 4 4 3 7 7 6 7 4 7 10 5 5 5 7 13 14 12 8 9 12 10 10 8 4 3 2 2 1 -0 0 0 1 1 2 1 1 1 -0 0 1 0 1 2 2 2 2 2 2 3 3 3 4 3 4 4 4 4 4 3 3 4 5 5 6 6 7 8 9 10 11 11 11 14 16 15 14 11 9 7 7 9 10 11 12 11 10 11 10 10 9 7 6 6
5 5 5 4 4 3 4 8 7 7 8 3 5 12 9 3 1 6 12 11 11 9 11 15 13 12 9 4 3 3 2 1 0 1 -0 0 0 1 1 1 0 -0 0 0 0 1 1 1 2 2 3 3 3 3 3 4 5 6 6 6 6 6 6 5 6 6 6 6 7 8 10 11 11 11 13 13 13 14 12 9 8 7 6 7 9 10 11 13 11 9 10 11 10 10 10 10 9
6 5 5 4 5 3 2 7 6 7 12 4 2 12 8 -1 -0 5 9 9 9 8 11 15 14 14 9 4 4 3 2 2 1 0 -1 -0 -0 -0 0 -0 1 1 1 1 1 2 2 3 4 4 3 2 2 3 4 5 6 6 7 7 7 7 7 7 7 7 7 8 9 9 11 14 15 15 15 14 12 12 10 8 6 7 8 7 7 9 12 11 11 13 14 11 10 10 13 16 18
5 4 5 4 5 3 1 6 6 7 14 4 2 13 4 -5 2 5 6 9 9 9 15 17 14 13 9 6 7 4 3 4 2 2 1 -1 -1 -1 0 1 1 0 2 3 4 5 5 5 5 4 4 4 5 5 5 5 6 7 8 8 8 8 7 7 7 7 8 9 11 14 15 16 17 16 14 12 10 9 9 8 8 12 16 14 10 11 11 9 8 10 10 12 19 22 21 21 24
5 4 5 4 5 6 3 5 5 7 11 5 5 14 2 -4 5 4 5 8 7 8 15 19 15 12 12 10 9 6 5 5 3 4 3 1 1 1 2 2 2 2 4 5 6 6 6 5 5 5 5 5 5 5 6 7 8 9 8 8 7 6 6 6 7 9 10 12 14 15 16 16 16 15 14 12 10 10 9 8 9 14 14 11 12 11 9 8 9 10 13 16 16 12 9 9 14
5 4 4 5 4 6 5 3 4 5 9 5 8 15 4 -1 5 3 6 8 5 8 14 19 17 12 12 11 10 10 9 7 5 5 5 5 5 5 4 5 5 5 4 4 4 4 4 4 4 4 4 4 4 5 6 7 7 6 5 5 5 6 8 9 11 12 13 14 15 16 16 16 15 14 14 13 12 10 9 9 10 13 9 6 8 5 5 10 13 15 12 6 -0 -3 -1 -2 -1
5 4 5 6 5 6 6 4 3 3 5 4 10 20 6 -2 5 5 7 8 5 9 12 15 16 11 7 8 8 9 8 6 5 4 4 4 5 6 5 5 5 4 3 2 2 2 3 3 3 3 4 5 5 6 6 5 4 4 5 7 9 10 12 13 15 16 17 17 17 17 17 16 16 16 15 14 14 13 11 11 12 13 12 15 16 8 5 6 3 1 -4 -7 -4 1 0 -2 -1
5 5 5 6 5 6 5 4 5 2 3 2 7 20 10 -2 7 6 1 4 4 8 12 12 14 12 8 9 9 8 6 5 4 2 2 3 2 3 2 2 2 2 2 2 1 2 2 2 3 4 6 7 8 8 7 6 6 7 8 9 11 13 14 16 16 16 16 17 18 18 18 18 18 17 16 15 16 14 10 8 9 10 11 14 16 13 10 7 2 0 -1 -0 2 3 2 4 10
5 6 6 6 6 7 4 3 6 2 3 3 -1 14 20 5 3 2 -3 1 5 7 13 13 13 13 10 12 12 10 8 6 5 4 3 2 2 2 3 2 3 3 3 3 2 2 2 3 4 5 7 7 7 7 7 8 9 10 12 14 15 16 16 16 15 15 15 15 16 17 17 16 14 15 17 18 17 15 11 7 5 4 7 9 8 10 13 16 15 12 13 14 12 12 14 18 21
5 7 6 6 6 6 4 3 5 2 4 7 -3 7 25 11 -2 1 -1 2 8 9 12 13 12 12 10 11 11 9 8 7 6 5 4 4 3 4 5 5 5 4 4 4 4 4 4 5 6 7 7 5 5 7 9 11 13 15 16 17 17 16 16 16 15 16 16 16 16 15 14 14 16 17 17 19 27 34 30 22 17 11 11 14 9 8 12 16 16 13 15 17 16 19 21 20 20
6 7 5 6 6 5 5 3 5 5 6 7 -1 3 20 13 -0 2 1 3 10 11 11 12 11 10 9 10 10 10 9 8 8 8 8 7 6 6 6 5 4 4 5 5 5 6 7 8 8 7 5 4 5 8 11 14 16 18 18 18 18 17 17 18 19 19 19 18 17 15 14 14 16 17 20 26 29 27 21 19 22 17 14 15 9 11 17 16 15 13 13 13 11 12 9 5 3
6 7 6 6 6 5 5 4 4 7 7 4 1 3 12 13 4 -0 -0 4 9 10 11 11 9 10 10 10 10 9 9 8 8 8 7 7 7 6 5 5 6 6 7 7 8 9 9 8 6 5 5 6 9 12 14 15 16 17 17 17 17 17 18 19 19 19 17 15 13 13 13 10 10 7 11 23 21 7 -0 3 10 11 12 13 8 8 12 8 2 -1 -2 -2 -2 -2 -4 -5 -3
6 7 8 7 6 5 5 6 5 7 7 2 0 2 6 11 6 -2 1 6 8 10 10 10 10 10 10 9 8 8 8 7 6 6 6 6 6 6 6 7 7 7 8 9 10 9 8 6 5 7 9 11 14 14 15 15 16 18 18 18 18 18 19 19 17 16 14 13 12 12 9 7 10 7 -0 3 5 3 4 6 6 8 14 19 18 15 13 10 8 7 7 9 10 10 7 7 8
8 8 8 6 5 6 5 5 4 6 7 3 1 3 6 6 4 2 7 9 9 9 7 8 9 9 7 7 7 7 7 6 7 8 8 7 7 7 7 6 7 8 9 8 7 6 5 5 8 12 13 14 16 15 16 17 18 19 19 19 20 19 18 17 16 14 13 14 15 14 11 7 9 9 2 -7 -10 -4 10 14 12 13 17 18 22 23 20 23 26 24 20 19 20 21 19 18 21
9 7 6 5 6 7 6 4 5 5 5 5 3 4 6 4 1 5 9 9 9 9 8 9 8 7 7 8 8 8 8 8 8 8 7 7 7 6 7 8 9 10 8 6 5 5 6 10 13 13 13 15 16 17 18 18 18 19 20 20 19 19 20 19 16 13 13 15 17 16 16 15 10 8 7 3 -3 -3 2 3 2 10 16 14 14 16 14 16 18 16 16 17 19 23 28 29 26
6 5 5 6 5 6 6 5 6 5 5 6 4 4 6 5 4 5 6 7 8 9 10 10 8 8 9 9 9 8 7 7 5 5 5 6 7 8 9 9 8 6 5 4 5 7 12 15 13 11 14 16 17 18 17 17 18 17 16 17 19 21 20 16 13 12 14 15 16 14 13 13 12 10 10 10 11 11 7 2 -2 1 6 5 3 1 2 4 4 6 11 14 11 10 15 21 19
4 7 6 5 4 7 8 5 3 4 6 5 4 5 6 6 7 5 4 6 8 10 11 10 9 9 8 6 5 4 4 5 6 8 8 8 8 7 5 5 5 6 6 6 9 13 17 13 10 13 16 16 15 15 16 17 17 14 13 14 17 20 16 12 13 14 15 17 18 17 14 13 13 13 12 11 12 15 14 12 9 4 2 3 1 -2 0 5 3 1 3 5 5 2 1 5 12
6 7 4 4 7 8 8 5 3 5 7 5 4 6 4 5 7 5 6 9 10 10 9 7 7 6 6 5 5 6 7 9 9 9 7 6 4 2 3 6 7 7 8 10 14 17 14 8 10 15 15 13 12 13 16 18 15 14 14 12 14 18 13 11 15 15 13 13 14 16 15 13 14 14 14 13 11 11 13 13 13 12 10 10 10 9 9 10 9 8 8 8 10 12 9 6 10
5 3 4 9 9 5 3 5 5 5 8 6 4 6 4 4 5 4 7 10 9 7 6 6 8 8 8 8 9 9 9 7 6 5 4 3 3 5 9 9 7 7 9 12 14 12 8 8 12 15 13 12 11 13 18 18 16 16 14 14 17 17 13 10 12 12 9 8 10 15 16 14 12 11 10 9 9 9 10 10 9 10 11 11 10 10 9 10 11 11 10 6 4 5 6 3 1
3 5 8 8 4 2 2 4 5 5 7 6 5 5 4 5 6 7 8 7 6 7 7 8 10 10 9 8 8 6 5 3 3 3 4 6 8 11 10 6 5 8 10 11 11 9 9 10 13 13 11 11 12 17 22 19 17 16 12 15 20 20 17 11 7 10 11 8 6 10 15 17 16 16 14 12 11 11 9 8 7 6 7 9 10 10 11 12 9 8 8 8 8 8 9 10 8
7 8 5 2 1 3 4 4 5 5 5 6 7 5 5 5 4 5 5 5 8 10 9 8 6 6 6 5 6 4 2 4 5 7 8 9 10 8 5 5 7 11 12 13 12 11 11 10 11 12 12 14 17 20 21 16 15 15 10 11 19 23 21 17 16 20 15 6 2 4 8 10 10 11 13 11 10 11 11 11 11 9 7 8 9 8 7 6 5 5 5 5 8 10 12 15 18
7 4 2 3 4 6 5 4 5 6 4 6 8 6 5 4 2 4 6 7 9 8 6 7 5 5 5 3 3 3 5 7 7 8 7 6 6 5 6 9 11 13 14 14 13 10 8 9 13 15 15 18 19 18 17 13 11 14 10 10 18 17 17 24 20 5 -3 -1 4 6 8 8 8 11 14 14 12 10 8 6 5 5 5 6 6 4 4 6 8 7 4 4 7 10 11 12 14
4 3 4 6 6 7 7 3 4 8 7 7 9 5 3 4 3 7 11 8 8 7 6 6 4 4 3 2 4 6 8 8 7 8 8 7 8 8 9 11 11 14 15 13 10 7 10 16 17 15 15 17 17 16 13 8 8 11 9 14 21 15 14 17 -3 -27 -21 -3 3 4 6 8 9 10 12 14 16 15 15 13 8 6 4 3 3 4 6 9 9 6 6 11 14 15 16 16 15
5 4 4 7 7 8 7 3 5 9 5 6 8 -3 -1 10 8 8 11 9 9 8 5 3 1 3 5 5 7 8 7 8 10 11 9 7 10 10 11 13 14 15 13 10 11 13 18 20 14 12 13 13 13 13 12 11 13 13 10 13 17 13 9 -1 -20 -23 -8 2 4 7 9 7 8 9 10 11 12 14 16 19 19 17 12 6 4 5 7 10 11 12 13 15 16 15 15 14 14
Height
5864 5863 5862 5861 5860 5859 5859 5857 5856 5856 5854 5853 5852 5850 5848 5848 5847 5846 5846 5846 5846 5846 5846 5846 5846 5846 5846 5846 5846 5847 5847 5846 5846 5846 5846 5845 5845 5845 5844 5844 5844 5844 5843 5843 5843 5843 5843 5843 5843 5843 5842 5842 5842 5842 5842 5841 5841 5841 5840 5840 5840 5840 5840 5839 5839 5840 5839 5839 5838 5838 5837 5837 5837 5837 5837 5836 5836 5835 5835 5835 5835 5835 5835 5835 5836 5836 5830 5826 5824 5820 5821 5822 5822 5823 5823 5825 5825
5861 5860 5860 5859 5857 5856 5856 5854 5853 5853 5852 5850 5849 5847 5846 5846 5845 5844 5844 5844 5844 5844 5844 5844 5844 5843 5843 5843 5844 5844 5844 5844 5843 5843 5843 5842 5842 5842 5842 5842 5842 5841 5841 5841 5840 5840 5840 5840 5840 5840 5840 5839 5839 5839 5838 5838 5838 5837 5837 5837 5837 5837 5836 5836 5836 5836 5836 5836 5835 5835 5834 5834 5834 5834 5834 5833 5833 5832 5832 5832 5832 5831 5832 5832 5834 5834 5828 5822 5821 5820 5820 5819 5819 5820 5821 5822 5823
5859 5858 5857 5856 5855 5854 5853 5852 5851 5850 5849 5847 5845 5845 5844 5843 5842 5842 5842 5842 5842 5842 5842 5842 5841 5841 5841 5841 5841 5841 5841 5841 5841 5841 5840 5840 5840 5839 5839 5839 5839 5838 5838 5838 5837 5837 5837 5837 5837 5837 5837 5836 5836 5836 5835 5835 5835 5834 5834 5834 5834 5833 5833 5833 5833 5833 5833 5832 5832 5831 5831 5831 5831 5831 5831 5830 5830 5829 5829 5828 5828 5828 5829 5829 5830 5830 5826 5822 5821 5820 5819 5817 5816 5817 5818 5819 5821
5857 5856 5855 5853 5853 5852 5851 5850 5849 5847 5846 5844 5843 5842 5841 5840 5841 5841 5841 5841 5841 5840 5840 5840 5840 5840 5840 5839 5839 5839 5838 5838 5838 5838 5838 5837 5837 5837 5837 5836 5836 5836 5835 5835 5835 5834 5834 5834 5834 5834 5833 5833 5833 5833 5832 5832 5832 5831 5831 5831 5831 5830 5830 5830 5830 5830 5829 5829 5829 5828 5828 5828 5828 5828 5828 5828 5827 5826 5825 5825 5825 5825 5825 5825 5826 5826 5823 5821 5819 5818 5817 5816 5815 5814 5816 5817 5819
5855 5854 5853 5851 5850 5850 5849 5848 5847 5845 5843 5841 5840 5839 5839 5839 5840 5840 5840 5839 5839 5839 5839 5838 5838 5838 5837 5837 5837 5836 5836 5836 5835 5835 5835 5835 5835 5834 5834 5833 5833 5833 5832 5832 5832 5831 5831 5831 5831 5831 5831 5830 5830 5830 5830 5830 5829 5829 5829 5828 5828 5828 5827 5827 5827 5826 5826 5826 5825 5825 5825 5825 5824 5825 5825 5825 5824 5823 5821 5821 5822 5822 5822 5822 5822 5822 5820 5819 5817 5817 5816 5814 5813 5813 5814 5815 5816
5852 5852 5851 5849 5849 5847 5847 5846 5844 5843 5841 5839 5838 5837 5837 5838 5838 5839 5838 5838 5838 5837 5837 5837 5836 5836 5835 5835 5834 5834 5833 5833 5833 5833 5833 5832 5832 5832 5831 5831 5831 5830 5830 5829 5829 5829 5828 5828 5828 5828 5828 5828 5828 5828 5828 5827 5827 5827 5826 5826 5826 5825 5825 5824 5824 5824 5823 5823 5822 5822 5821 5821 5821 5821 5822 5821 5820 5819 5818 5817 5819 5819 5819 5819 5818 5818 5818 5817 5815 5814 5813 5812 5812 5812 5812 5812 5813
5850 5849 5848 5847 5847 5846 5845 5844 5842 5841 5839 5837 5836 5836 5836 5836 5837 5838 5837 5836 5836 5835 5835 5835 5834 5834 5833 5833 5832 5831 5831 5831 5830 5830 5830 5830 5830 5830 5829 5829 5829 5828 5828 5827 5827 5826 5826 5826 5826 5826 5826 5826 5825 5825 5825 5825 5825 5824 5824 5824 5823 5823 5822 5822 5821 5821 5820 5819 5819 5819 5818 5818 5818 5818 5818 5818 5817 5816 5816 5815 5815 5816 5816 5816 5815 5815 5815 5814 5813 5812 5811 5809 5809 5809 5810 5809 5809
5847 5847 5846 5845 5845 5844 5843 5842 5840 5838 5836 5835 5835 5835 5834 5834 5835 5836 5835 5835 5834 5833 5832 5832 5832 5832 5831 5830 5829 5828 5828 5828 5828 5828 5829 5829 5828 5828 5828 5827 5826 5826 5825 5825 5824 5824 5824 5824 5823 5823 5823 5823 5823 5823 5823 5822 5822 5822 5821 5821 5821 5820 5819 5819 5818 5817 5817 5816 5816 5816 5815 5815 5815 5815 5815 5815 5814 5813 5813 5812 5812 5813 5813 5813 5812 5812 5812 5811 5810 5809 5808 5807 5807 5807 5806 5806 5806
5845 5844 5844 5844 5843 5843 5841 5840 5838 5836 5834 5834 5833 5833 5833 5832 5833 5834 5833 5833 5832 5830 5829 5829 5829 5829 5828 5827 5826 5825 5826 5826 5826 5827 5827 5827 5826 5826 5825 5824 5824 5823 5823 5822 5822 5821 5821 5821 5821 5821 5820 5820 5820 5820 5820 5819 5819 5819 5819 5818 5818 5817 5816 5816 5815 5814 5814 5813 5813 5813 5812 5812 5812 5812 5812 5811 5811 5810 5810 5809 5809 5810 5810 5810 5809 5809 5809 5808 5807 5806 5806 5805 5804 5804 5803 5803 5803
5843 5842 5841 5842 5842 5841 5839 5838 5836 5834 5832 5832 5832 5832 5832 5831 5831 5831 5831 5830 5829 5828 5827 5826 5826 5826 5826 5825 5824 5823 5823 5824 5824 5824 5824 5824 5823 5822 5821 5821 5820 5820 5819 5819 5819 5818 5818 5818 5818 5818 5817 5817 5817 5817 5816 5816 5816 5815 5815 5815 5814 5813 5813 5812 5812 5811 5811 5810 5809 5810 5809 5809 5809 5809 5809 5808 5808 5808 5806 5806 5807 5806 5806 5806 5806 5806 5806 5805 5804 5803 5803 5802 5802 5801 5801 5800 5800
5840 5840 5839 5840 5840 5838 5837 5836 5833 5831 5830 5830 5830 5830 5830 5829 5829 5829 5829 5827 5826 5825 5824 5823 5824 5824 5824 5823 5821 5820 5820 5821 5821 5821 5821 5820 5819 5819 5818 5818 5817 5817 5817 5816 5816 5816 5815 5815 5815 5814 5814 5814 5813 5813 5813 5812 5812 5812 5811 5811 5810 5810 5809 5809 5808 5808 5807 5807 5806 5806 5806 5806 5806 5805 5805 5805 5805 5805 5803 5803 5803 5802 5802 5803 5802 5802 5802 5802 5801 5800 5800 5800 5799 5798 5798 5797 5797
5837 5838 5837 5837 5837 5836 5835 5833 5831 5829 5827 5827 5828 5828 5828 5827 5827 5826 5826 5825 5823 5822 5821 5821 5821 5821 5821 5819 5818 5817 5818 5818 5818 5818 5818 5817 5816 5816 5815 5815 5814 5814 5814 5813 5813 5812 5812 5812 5811 5811 5811 5810 5810 5810 5809 5809 5809 5808 5808 5807 5807 5806 5806 5805 5805 5804 5804 5803 5803 5803 5802 5802 5802 5802 5802 5802 5802 5802 5801 5800 5799 5798 5799 5799 5799 5799 5799 5798 5797 5797 5797 5797 5796 5795 5795 5794 5793
5835 5835 5835 5835 5835 5833 5831 5830 5829 5827 5825 5825 5825 5825 5825 5825 5824 5824 5824 5823 5821 5820 5819 5819 5818 5818 5818 5817 5816 5815 5816 5816 5815 5815 5814 5813 5813 5812 5812 5812 5811 5811 5811 5810 5809 5809 5808 5808 5808 5807 5807 5807 5806 5806 5806 5806 5805 5805 5805 5804 5804 5803 5802 5802 5801 5801 5800 5800 5800 5799 5799 5799 5799 5799 5799 5799 5799 5798 5798 5797 5796 5795 5795 5796 5796 5795 5795 5795 5794 5794 5793 5793 5793 5792 5792 5790 5789
5833 5833 5832 5832 5832 5830 5828 5827 5826 5825 5823 5822 5822 5822 5822 5822 5822 5822 5822 5820 5818 5818 5817 5816 5815 5815 5815 5815 5814 5814 5814 5813 5812 5811 5811 5810 5809 5809 5809 5809 5808 5808 5808 5807 5806 5806 5805 5805 5804 5804 5803 5803 5803 5802 5802 5802 5802 5801 5801 5800 5800 5800 5799 5799 5798 5798 5797 5797 5796 5796 5796 5795 5795 5796 5795 5795 5795 5794 5794 5793 5793 5791 5791 5792 5792 5792 5792 5791 5791 5790 5789 5789 5790 5789 5788 5787 5786
5830 5830 5830 5830 5829 5826 5824 5823 5823 5823 5821 5820 5820 5819 5819 5819 5819 5820 5819 5819 5816 5815 5815 5812 5811 5812 5813 5813 5812 5811 5811 5810 5809 5808 5807 5807 5806 5806 5806 5806 5806 5805 5805 5804 5803 5803 5802 5802 5801 5800 5800 5800 5799 5799 5798 5798 5797 5797 5797 5796 5796 5796 5795 5795 5795 5794 5794 5793 5793 5793 5793 5792 5792 5792 5791 5791 5791 5791 5790 5789 5788 5788 5787 5788 5789 5789 5789 5788 5787 5787 5786 5785 5786 5786 5785 5783 5782
5828 5827 5827 5827 5825 5822 5821 5820 5820 5820 5819 5818 5817 5817 5817 5816 5816 5818 5817 5816 5814 5813 5811 5808 5807 5809 5810 5810 5810 5809 5808 5807 5806 5805 5804 5804 5804 5804 5803 5803 5803 5802 5802 5801 5801 5800 5799 5799 5798 5798 5797 5797 5796 5795 5795 5794 5794 5793 5793 5792 5792 5792 5791 5791 5791 5790 5790 5790 5790 5789 5789 5789 5789 5788 5788 5788 5787 5788 5788 5785 5784 5783 5783 5783 5783 5785 5785 5784 5783 5782 5782 5782 5782 5783 5782 5780 5778
5825 5824 5824 5824 5821 5818 5818 5817 5817 5817 5816 5815 5815 5815 5815 5813 5813 5815 5814 5813 5812 5811 5807 5803 5803 5806 5807 5808 5807 5807 5805 5804 5803 5802 5802 5801 5801 5800 5800 5799 5799 5798 5798 5798 5797 5797 5796 5795 5795 5795 5794 5794 5793 5792 5792 5791 5790 5790 5789 5789 5788 5788 5788 5787 5787 5787 5786 5786 5786 5786 5785 5785 5785 5785 5784 5784 5783 5784 5785 5782 5780 5779 5779 5779 5779 5780 5781 5779 5779 5778 5778 5778 5778 5778 5778 5776 5773
5822 5821 5821 5820 5817 5815 5815 5814 5814 5814 5814 5813 5812 5812 5813 5812 5811 5812 5812 5811 5810 5809 5803 5799 5801 5803 5805 5805 5804 5804 5803 5801 5800 5800 5799 5798 5797 5797 5796 5796 5795 5795 5794 5794 5794 5793 5793 5792 5792 5791 5791 5790 5790 5789 5789 5788 5787 5787 5786 5785 5785 5784 5784 5783 5783 5783 5782 5782 5782 5782 5782 5782 5781 5781 5781 5780 5780 5780 5780 5779 5776 5775 5776 5775 5774 5775 5776 5776 5774 5773 5773 5773 5774 5774 5773 5771 5768
5819 5818 5818 5817 5813 5813 5812 5810 5811 5811 5811 5811 5809 5809 5810 5810 5810 5809 5810 5809 5808 5805 5799 5797 5800 5801 5801 5801 5801 5801 5800 5798 5798 5797 5797 5795 5794 5794 5793 5792 5792 5791 5791 5790 5790 5789 5789 5788 5788 5788 5788 5787 5786 5786 5785 5785 5784 5783 5783 5782 5781 5781 5780 5780 5779 5779 5778 5778 5779 5778 5778 5778 5778 5778 5778 5777 5776 5776 5775 5774 5772 5772 5771 5770 5769 5770 5771 5771 5770 5769 5768 5768 5768 5768 5768 5766 5764
5816 5815 5815 5813 5810 5810 5809 5807 5808 5808 5808 5808 5807 5806 5807 5807 5807 5807 5807 5807 5805 5799 5796 5798 5800 5800 5798 5797 5797 5797 5797 5796 5796 5795 5794 5792 5791 5791 5790 5789 5788 5788 5788 5787 5786 5786 5785 5785 5785 5785 5784 5784 5783 5782 5782 5781 5780 5780 5779 5778 5777 5777 5776 5776 5775 5775 5774 5774 5775 5775 5774 5774 5773 5774 5774 5774 5773 5772 5771 5770 5769 5768 5767 5766 5765 5764 5765 5765 5765 5764 5762 5761 5762 5762 5762 5761 5760
5812 5812 5811 5809 5808 5807 5806 5804 5805 5805 5805 5805 5804 5804 5804 5804 5804 5804 5804 5806 5803 5795 5794 5798 5799 5799 5797 5795 5794 5793 5793 5793 5792 5792 5791 5790 5789 5788 5787 5786 5785 5785 5784 5784 5783 5782 5782 5781 5781 5781 5781 5780 5780 5779 5778 5778 5777 5776 5775 5774 5773 5773 5772 5772 5771 5771 5770 5770 5770 5770 5770 5770 5769 5769 5769 5769 5769 5768 5767 5766 5765 5764 5762 5761 5760 5760 5760 5758 5758 5758 5756 5755 5756 5756 5756 5755 5754
5809 5809 5808 5806 5805 5805 5803 5801 5802 5802 5801 5802 5801 5802 5802 5801 5801 5801 5801 5802 5799 5794 5793 5796 5797 5796 5795 5794 5792 5790 5790 5789 5789 5788 5787 5787 5786 5785 5784 5782 5781 5781 5782 5781 5780 5779 5778 5778 5777 5777 5777 5776 5776 5775 5774 5774 5773 5773 5772 5771 5770 5769 5768 5768 5767 5767 5766 5765 5765 5766 5765 5765 5764 5764 5764 5763 5763 5763 5762 5761 5761 5759 5758 5757 5756 5754 5754 5752 5751 5751 5750 5750 5750 5750 5749 5749 5748
5806 5806 5804 5802 5802 5802 5800 5798 5799 5798 5798 5799 5799 5800 5800 5798 5799 5799 5798 5796 5794 5793 5793 5794 5794 5793 5792 5792 5790 5788 5787 5786 5785 5785 5784 5784 5783 5782 5780 5779 5778 5779 5779 5778 5777 5777 5776 5775 5774 5774 5773 5772 5771 5771 5770 5769 5768 5768 5768 5767 5766 5765 5764 5763 5763 5763 5762 5761 5760 5760 5761 5760 5759 5759 5759 5758 5757 5757 5756 5755 5755 5754 5753 5752 5751 5749 5747 5746 5744 5744 5744 5744 5744 5743 5743 5742 5742
5802 5803 5801 5799 5799 5799 5797 5796 5796 5795 5795 5796 5796 5797 5796 5794 5796 5797 5796 5792 5790 5791 5791 5791 5791 5790 5789 5788 5787 5786 5785 5784 5783 5782 5782 5781 5780 5779 5778 5776 5776 5776 5777 5775 5775 5774 5773 5772 5771 5770 5769 5768 5768 5767 5767 5766 5764 5764 5763 5763 5761 5761 5760 5759 5759 5758 5758 5757 5756 5755 5755 5755 5754 5754 5753 5752 5751 5751 5750 5749 5748 5747 5746 5745 5745 5744 5742 5741 5739 5738 5737 5737 5737 5737 5737 5736 5736
5799 5799 5798 5797 5796 5795 5794 5793 5793 5792 5792 5792 5793 5794 5792 5790 5793 5795 5792 5788 5787 5788 5788 5788 5788 5786 5785 5784 5783 5782 5781 5781 5780 5779 5779 5778 5777 5776 5775 5774 5774 5774 5773 5772 5772 5771 5770 5769 5768 5767 5766 5766 5765 5764 5763 5762 5761 5760 5759 5759 5758 5757 5756 5755 5754 5753 5753 5752 5751 5750 5750 5750 5749 5748 5748 5746 5745 5745 5744 5743 5742 5741 5739 5739 5738 5737 5736 5735 5734 5733 5732 5731 5731 5731 5730 5730 5729
5796 5795 5795 5795 5793 5791 5790 5790 5789 5789 5789 5789 5789 5790 5789 5787 5789 5791 5789 5785 5785 5786 5785 5785 5784 5783 5781 5780 5779 5779 5779 5778 5777 5776 5776 5775 5774 5774 5773 5772 5771 5771 5770 5769 5768 5768 5767 5766 5765 5764 5763 5763 5762 5761 5760 5759 5758 5757 5756 5755 5754 5753 5752 5751 5749 5749 5748 5747 5746 5745 5744 5743 5742 5742 5741 5740 5739 5738 5737 5736 5735 5734 5733 5732 5731 5730 5729 5728 5727 5726 5726 5725 5725 5724 5724 5724 5723
5792 5791 5792 5792 5790 5788 5787 5787 5786 5785 5786 5785 5784 5785 5785 5784 5785 5786 5784 5783 5783 5783 5782 5781 5780 5780 5778 5777 5776 5775 5775 5775 5774 5774 5773 5772 5771 5772 5771 5769 5768 5768 5767 5766 5765 5765 5764 5763 5762 5761 5760 5760 5759 5758 5757 5756 5755 5753 5752 5751 5751 5749 5748 5747 5745 5744 5743 5742 5741 5740 5738 5737 5736 5735 5734 5733 5732 5731 5729 5729 5728 5727 5726 5725 5724 5723 5722 5721 5719 5719 5719 5718 5718 5718 5717 5717 5717
5787 5787 5788 5788 5786 5786 5785 5784 5783 5782 5782 5781 5779 5780 5782 5782 5781 5781 5780 5780 5780 5780 5779 5778 5776 5776 5775 5774 5773 5772 5772 5771 5771 5770 5770 5769 5769 5768 5768 5766 5765 5764 5764 5763 5762 5761 5760 5760 5759 5758 5757 5756 5755 5754 5753 5752 5751 5750 5748 5747 5746 5745 5744 5742 5741 5739 5737 5736 5735 5734 5733 5731 5730 5729 5727 5725 5725 5723 5721 5721 5720 5719 5718 5718 5717 5716 5715 5714 5712 5712 5712 5711 5711 5711 5711 5710 5710
5783 5783 5784 5784 5782 5782 5782 5780 5780 5779 5778 5777 5775 5775 5778 5780 5779 5777 5776 5776 5776 5776 5776 5774 5773 5772 5771 5770 5769 5768 5768 5767 5767 5766 5766 5766 5765 5764 5763 5762 5761 5761 5760 5759 5758 5757 5756 5755 5754 5753 5752 5751 5750 5749 5749 5748 5747 5746 5744 5742 5741 5740 5739 5738 5736 5734 5732 5731 5729 5727 5726 5725 5723 5722 5720 5718 5717 5716 5714 5713 5712 5711 5711 5710 5710 5709 5708 5708 5706 5705 5704 5704 5703 5704 5704 5703 5703
5779 5779 5779 5780 5779 5778 5778 5777 5776 5775 5774 5773 5771 5770 5773 5778 5777 5773 5772 5772 5772 5772 5772 5771 5770 5768 5767 5765 5764 5763 5763 5762 5762 5762 5761 5761 5760 5759 5758 5757 5756 5756 5755 5754 5753 5752 5751 5750 5748 5747 5746 5745 5744 5743 5743 5742 5740 5739 5738 5737 5735 5734 5732 5732 5730 5729 5727 5725 5724 5721 5719 5718 5716 5715 5713 5711 5710 5708 5706 5705 5704 5703 5704 5704 5702 5701 5700 5700 5700 5698 5697 5696 5696 5696 5696 5696 5696
5776 5775 5775 5776 5774 5776 5776 5774 5772 5771 5769 5768 5767 5766 5767 5774 5776 5771 5768 5767 5767 5767 5768 5767 5766 5764 5763 5761 5759 5759 5758 5757 5757 5757 5756 5756 5755 5754 5753 5752 5751 5751 5750 5749 5748 5747 5746 5745 5743 5742 5741 5739 5738 5737 5736 5735 5733 5732 5731 5730 5728 5727 5725 5724 5723 5722 5720 5718 5717 5716 5713 5711 5710 5708 5706 5704 5703 5701 5699 5698 5697 5696 5695 5695 5695 5694 5693 5693 5692 5691 5689 5689 5689 5689 5689 5689 5689
5773 5771 5770 5771 5770 5773 5774 5772 5770 5767 5766 5765 5764 5762 5763 5769 5772 5770 5766 5763 5761 5761 5763 5763 5761 5760 5759 5757 5755 5754 5754 5753 5753 5753 5752 5751 5750 5749 5748 5747 5746 5745 5745 5744 5743 5741 5740 5739 5738 5737 5735 5734 5732 5731 5730 5728 5727 5725 5724 5723 5721 5720 5718 5717 5716 5714 5712 5710 5709 5708 5707 5705 5703 5700 5698 5696 5695 5693 5691 5690 5689 5688 5687 5687 5686 5686 5686 5686 5685 5684 5683 5682 5681 5681 5682 5682 5682
5770 5766 5765 5766 5767 5768 5770 5770 5767 5763 5761 5761 5761 5759 5760 5764 5766 5766 5764 5760 5757 5757 5758 5758 5757 5756 5755 5753 5751 5749 5749 5749 5748 5748 5747 5746 5745 5744 5743 5742 5741 5740 5739 5738 5737 5736 5734 5733 5732 5731 5730 5728 5726 5725 5723 5722 5720 5719 5718 5716 5715 5713 5711 5709 5708 5706 5705 5703 5701 5700 5699 5697 5695 5693 5690 5688 5687 5685 5684 5682 5681 5680 5679 5678 5678 5678 5678 5678 5677 5677 5676 5675 5674 5673 5674 5674 5673
5764 5761 5761 5763 5764 5763 5765 5766 5763 5759 5757 5757 5758 5757 5757 5759 5760 5762 5761 5756 5754 5754 5754 5753 5753 5752 5751 5749 5746 5745 5744 5744 5744 5743 5742 5741 5740 5739 5738 5736 5735 5734 5733 5732 5731 5729 5728 5727 5726 5725 5723 5722 5720 5718 5717 5715 5714 5712 5711 5709 5708 5706 5704 5701 5700 5698 5696 5695 5693 5691 5690 5688 5687 5685 5682 5680 5679 5676 5675 5674 5673 5672 5671 5670 5670 5670 5670 5670 5669 5668 5668 5667 5666 5666 5665 5666 5665
5758 5758 5759 5759 5759 5759 5761 5761 5758 5755 5754 5754 5754 5753 5753 5754 5754 5756 5756 5752 5750 5750 5751 5750 5749 5748 5747 5744 5741 5740 5740 5739 5738 5737 5736 5736 5735 5733 5732 5731 5729 5728 5727 5726 5725 5724 5722 5720 5719 5718 5716 5715 5713 5712 5710 5709 5707 5706 5704 5702 5700 5699 5697 5694 5692 5690 5688 5686 5684 5682 5681 5679 5677 5676 5674 5672 5670 5669 5667 5665 5664 5663 5662 5662 5662 5662 5661 5662 5661 5660 5660 5659 5658 5658 5658 5658 5657
5755 5756 5755 5754 5754 5755 5757 5756 5752 5751 5749 5749 5751 5749 5748 5749 5749 5751 5750 5747 5746 5746 5746 5746 5746 5745 5742 5739 5736 5735 5735 5733 5733 5732 5731 5730 5729 5728 5726 5725 5723 5722 5721 5720 5719 5717 5716 5714 5713 5711 5709 5708 5706 5704 5703 5702 5700 5698 5696 5694 5692 5690 5688 5686 5684 5682 5680 5678 5676 5674 5672 5669 5667 5665 5664 5662 5661 5661 5659 5656 5655 5654 5654 5653 5653 5652 5653 5652 5652 5652 5652 5651 5650 5649 5649 5649 5649
5752 5751 5750 5749 5749 5751 5753 5750 5748 5748 5744 5744 5747 5744 5743 5745 5745 5745 5745 5743 5742 5742 5742 5742 5742 5741 5738 5734 5732 5731 5730 5729 5728 5728 5726 5725 5723 5722 5720 5719 5717 5716 5715 5714 5712 5711 5709 5708 5706 5704 5702 5701 5699 5697 5695 5694 5692 5690 5688 5686 5683 5681 5679 5677 5675 5673 5671 5669 5666 5664 5663 5660 5657 5655 5654 5652 5651 5651 5650 5648 5647 5646 5645 5645 5644 5643 5643 5643 5643 5643 5643 5643 5642 5641 5641 5641 5641
5747 5747 5746 5745 5745 5746 5748 5745 5743 5743 5739 5739 5741 5739 5739 5741 5740 5740 5739 5738 5738 5738 5738 5738 5737 5736 5734 5730 5728 5727 5725 5724 5724 5722 5721 5719 5717 5716 5714 5713 5711 5710 5708 5707 5706 5704 5702 5701 5699 5697 5695 5694 5692 5690 5688 5686 5684 5682 5680 5677 5675 5672 5670 5667 5665 5663 5661 5658 5656 5654 5652 5651 5648 5646 5644 5642 5641 5641 5640 5639 5639 5638 5636 5636 5636 5635 5635 5635 5635 5635 5635 5634 5634 5633 5633 5633 5633
5743 5743 5741 5740 5743 5742 5740 5740 5739 5737 5735 5735 5735 5734 5734 5736 5736 5735 5734 5733 5732 5733 5733 5733 5732 5731 5729 5727 5725 5723 5722 5720 5719 5717 5715 5714 5712 5710 5708 5707 5705 5703 5702 5700 5698 5697 5695 5694 5692 5690 5688 5686 5684 5682 5680 5678 5676 5674 5671 5669 5666 5663 5661 5658 5656 5653 5651 5648 5646 5643 5641 5640 5638 5637 5635 5633 5632 5632 5631 5630 5630 5630 5629 5628 5628 5628 5627 5627 5627 5627 5626 5626 5625 5626 5626 5626 5627
5739 5738 5736 5737 5740 5737 5734 5735 5735 5733 5731 5730 5729 5729 5729 5730 5731 5729 5727 5727 5726 5726 5728 5728 5727 5725 5723 5722 5721 5719 5718 5716 5714 5712 5710 5708 5706 5705 5703 5701 5699 5697 5696 5694 5692 5690 5689 5686 5684 5682 5680 5678 5675 5673 5671 5669 5667 5665 5663 5660 5657 5654 5651 5649 5646 5644 5641 5638 5636 5634 5632 5630 5628 5628 5627 5625 5624 5623 5623 5622 5622 5623 5622 5621 5621 5620 5619 5619 5619 5619 5618 5618 5618 5619 5619 5619 5619
5734 5733 5732 5734 5734 5732 5730 5729 5729 5728 5727 5726 5725 5723 5723 5724 5725 5723 5721 5720 5718 5719 5721 5721 5719 5719 5717 5716 5715 5714 5713 5711 5709 5707 5705 5703 5701 5699 5697 5695 5694 5692 5689 5687 5685 5683 5681 5679 5676 5674 5671 5669 5666 5664 5662 5660 5658 5655 5653 5650 5648 5645 5642 5639 5636 5634 5632 5629 5627 5625 5623 5621 5620 5619 5618 5617 5616 5615 5615 5614 5615 5615 5615 5615 5614 5614 5613 5613 5612 5612 5612 5612 5612 5611 5611 5611 5611
5728 5728 5729 5729 5727 5727 5726 5724 5723 5722 5721 5723 5722 5719 5718 5719 5717 5716 5716 5712 5711 5713 5714 5712 5711 5710 5709 5707 5707 5707 5706 5704 5702 5699 5697 5696 5694 5692 5690 5688 5686 5684 5682 5680 5677 5675 5673 5670 5667 5665 5662 5659 5656 5654 5652 5649 5647 5645 5642 5640 5637 5634 5632 5629 5627 5624 5622 5620 5618 5616 5615 5613 5612 5611 5609 5608 5608 5607 5607 5607 5606 5606 5606 5606 5607 5607 5607 5607 5606 5606 5605 5604 5603 5603 5603 5603 5604
5721 5724 5726 5724 5723 5722 5721 5720 5719 5717 5716 5717 5717 5715 5714 5713 5710 5710 5709 5705 5705 5708 5707 5704 5703 5702 5700 5698 5699 5698 5697 5695 5692 5690 5688 5687 5685 5683 5681 5679 5677 5675 5673 5671 5669 5667 5664 5661 5659 5656 5653 5650 5647 5644 5641 5639 5636 5634 5631 5628 5626 5623 5621 5619 5616 5614 5612 5611 5609 5608 5606 5605 5604 5602 5601 5600 5600 5599 5599 5599 5598 5598 5598 5598 5598 5598 5598 5598 5597 5596 5595 5595 5594 5594 5594 5594 5595
5716 5720 5721 5719 5719 5718 5716 5715 5713 5712 5713 5710 5712 5714 5709 5706 5705 5703 5702 5701 5701 5702 5699 5698 5696 5694 5692 5691 5691 5690 5688 5685 5683 5681 5680 5678 5676 5674 5672 5670 5668 5667 5665 5663 5661 5658 5655 5652 5649 5647 5644 5641 5638 5635 5632 5629 5626 5623 5620 5617 5615 5612 5610 5608 5606 5604 5603 5601 5600 5599 5599 5597 5596 5595 5593 5592 5592 5591 5590 5590 5591 5590 5590 5590 5590 5589 5588 5587 5587 5586 5585 5585 5586 5585 5585 5585 5585
5712 5715 5715 5715 5714 5713 5711 5710 5708 5709 5708 5704 5709 5711 5704 5700 5699 5697 5698 5698 5697 5695 5693 5691 5689 5687 5686 5684 5683 5681 5679 5676 5674 5673 5671 5669 5667 5665 5663 5661 5660 5659 5657 5655 5652 5649 5646 5643 5640 5637 5635 5632 5629 5625 5622 5619 5616 5613 5610 5607 5605 5602 5600 5598 5596 5594 5593 5592 5592 5592 5591 5590 5588 5587 5586 5585 5584 5583 5583 5582 5583 5582 5581 5581 5581 5579 5579 5578 5578 5577 5577 5577 5578 5577 5578 5577 5577
5708 5709 5709 5709 5708 5707 5706 5705 5704 5704 5701 5699 5705 5705 5699 5694 5691 5692 5695 5693 5691 5689 5687 5685 5682 5681 5680 5678 5676 5673 5671 5668 5666 5665 5663 5661 5659 5656 5655 5653 5651 5650 5648 5646 5643 5640 5637 5634 5631 5628 5625 5622 5619 5616 5612 5609 5606 5603 5600 5597 5594 5592 5590 5588 5586 5585 5584 5584 5583 5584 5583 5581 5580 5580 5579 5578 5577 5576 5576 5575 5575 5575 5574 5573 5573 5571 5571 5572 5571 5570 5570 5571 5571 5570 5570 5570 5570
5704 5704 5704 5703 5701 5701 5700 5699 5700 5698 5694 5695 5699 5698 5695 5688 5682 5688 5691 5687 5684 5683 5681 5679 5677 5675 5673 5671 5669 5666 5663 5660 5658 5657 5655 5652 5650 5648 5646 5645 5643 5641 5639 5637 5633 5630 5627 5624 5621 5619 5616 5613 5609 5606 5603 5599 5596 5593 5590 5587 5585 5582 5580 5579 5577 5576 5576 5575 5575 5574 5574 5573 5572 5571 5571 5570 5569 5568 5567 5567 5567 5566 5566 5565 5564 5564 5564 5564 5563 5563 5563 5562 5562 5562 5562 5561 5561
5700 5699 5698 5696 5695 5694 5694 5694 5695 5692 5688 5690 5692 5691 5687 5681 5679 5684 5685 5681 5678 5676 5675 5674 5671 5669 5666 5663 5661 5658 5655 5652 5650 5648 5646 5644 5642 5640 5638 5636 5634 5632 5630 5627 5624 5620 5617 5614 5612 5609 5606 5603 5600 5596 5592 5589 5586 5584 5581 5578 5575 5573 5571 5570 5569 5568 5567 5567 5566 5565 5565 5564 5563 5563 5562 5561 5560 5559 5558 5558 5558 5558 5557 5557 5556 5555 5555 5555 5555 5554 5554 5554 5553 5553 5552 5552 5552
5694 5693 5692 5691 5689 5688 5688 5688 5688 5686 5685 5686 5686 5682 5678 5675 5677 5678 5677 5675 5673 5672 5671 5669 5665 5662 5659 5656 5654 5651 5648 5645 5643 5639 5636 5635 5633 5631 5629 5626 5625 5623 5620 5618 5614 5611 5608 5605 5602 5599 5596 5593 5589 5586 5582 5579 5576 5574 5572 5569 5567 5564 5562 5561 5560 5559 5559 5558 5557 5557 5556 5556 5555 5554 5553 5552 5552 5551 5551 5550 5550 5550 5550 5549 5548 5548 5547 5546 5546 5546 5545 5545 5545 5544 5544 5544 5545
5688 5687 5687 5685 5684 5683 5682 5682 5679 5678 5680 5680 5678 5674 5670 5671 5673 5670 5667 5667 5667 5668 5667 5664 5660 5657 5652 5650 5646 5643 5640 5637 5635 5631 5628 5626 5624 5622 5620 5618 5616 5614 5612 5609 5605 5602 5598 5595 5592 5589 5585 5582 5579 5576 5573 5569 5567 5564 5562 5560 5558 5556 5554 5553 5552 5551 5550 5549 5548 5548 5548 5547 5546 5545 5545 5544 5543 5543 5543 5542 5542 5542 5542 5541 5541 5540 5540 5539 5539 5538 5538 5537 5537 5537 5537 5537 5537
5682 5682 5681 5680 5681 5680 5677 5675 5673 5673 5674 5671 5669 5667 5665 5665 5666 5661 5658 5659 5661 5660 5658 5657 5654 5650 5646 5642 5638 5635 5632 5629 5627 5624 5621 5619 5616 5614 5612 5610 5608 5605 5602 5599 5595 5592 5588 5585 5582 5578 5575 5572 5569 5567 5563 5560 5558 5555 5553 5551 5549 5547 5546 5545 5544 5543 5542 5541 5540 5540 5539 5539 5538 5537 5537 5536 5535 5535 5534 5534 5533 5533 5533 5533 5533 5532 5532 5532 5531 5531 5530 5530 5529 5530 5530 5529 5529
5676 5677 5675 5675 5677 5675 5671 5670 5669 5668 5665 5662 5661 5662 5662 5660 5658 5654 5652 5654 5656 5652 5650 5650 5647 5642 5639 5635 5631 5627 5624 5621 5619 5616 5615 5612 5609 5607 5604 5602 5599 5595 5592 5588 5585 5582 5578 5575 5571 5568 5565 5562 5559 5557 5554 5552 5549 5546 5544 5542 5541 5539 5538 5538 5537 5535 5534 5533 5532 5532 5531 5531 5530 5530 5529 5528 5527 5527 5526 5526 5525 5525 5524 5524 5523 5523 5523 5523 5523 5522 5522 5521 5521 5522 5522 5522 5521
5671 5671 5671 5671 5670 5667 5665 5664 5665 5662 5656 5654 5655 5655 5656 5653 5647 5647 5648 5650 5650 5646 5643 5642 5639 5635 5631 5627 5624 5621 5617 5614 5611 5608 5606 5604 5601 5598 5595 5592 5589 5585 5581 5578 5575 5572 5568 5565 5561 5558 5556 5553 5550 5548 5545 5543 5540 5538 5536 5534 5532 5532 5531 5530 5530 5528 5527 5526 5525 5524 5524 5523 5522 5522 5521 5520 5520 5519 5518 5518 5517 5517 5516 5516 5515 5515 5514 5514 5514 5513 5513 5512 5512 5513 5514 5513 5513
5666 5666 5665 5664 5662 5661 5661 5659 5658 5655 5648 5648 5650 5650 5649 5645 5638 5638 5642 5643 5642 5639 5636 5633 5629 5625 5622 5619 5616 5613 5610 5607 5603 5600 5597 5594 5592 5589 5586 5582 5578 5575 5572 5569 5565 5562 5559 5555 5552 5549 5546 5544 5541 5539 5536 5534 5531 5529 5527 5526 5524 5524 5523 5523 5522 5521 5520 5518 5517 5516 5515 5515 5514 5513 5512 5512 5511 5511 5510 5510 5509 5509 5508 5508 5507 5507 5506 5506 5505 5505 5504 5504 5503 5504 5504 5503 5503
5662 5659 5658 5657 5656 5656 5656 5652 5650 5647 5641 5640 5644 5644 5642 5639 5633 5631 5634 5637 5634 5630 5628 5624 5620 5616 5612 5610 5607 5605 5603 5599 5595 5592 5588 5585 5582 5578 5575 5572 5568 5566 5562 5559 5556 5553 5549 5546 5543 5540 5537 5535 5532 5530 5528 5525 5523 5521 5519 5518 5517 5516 5516 5515 5514 5514 5512 5511 5509 5508 5508 5507 5506 5505 5504 5503 5503 5502 5502 5501 5501 5500 5499 5499 5498 5498 5498 5498 5497 5497 5496 5495 5495 5496 5495 5494 5494
5654 5652 5651 5651 5650 5649 5649 5646 5643 5641 5636 5633 5633 5635 5636 5633 5627 5624 5627 5631 5627 5621 5619 5616 5611 5607 5603 5601 5599 5596 5595 5591 5587 5583 5579 5576 5572 5568 5565 5562 5559 5556 5553 5550 5546 5543 5540 5537 5534 5531 5529 5526 5523 5521 5519 5517 5515 5513 5512 5511 5510 5509 5509 5507 5506 5505 5503 5502 5501 5500 5500 5499 5498 5497 5496 5495 5494 5494 5493 5493 5492 5492 5491 5490 5490 5489 5489 5489 5488 5488 5487 5487 5487 5487 5487 5485 5485
5647 5647 5646 5645 5644 5642 5640 5638 5638 5635 5631 5628 5623 5625 5631 5628 5619 5616 5618 5620 5616 5611 5609 5606 5601 5597 5593 5590 5589 5587 5584 5581 5577 5574 5570 5566 5563 5559 5556 5553 5550 5547 5543 5540 5537 5533 5531 5528 5526 5523 5520 5518 5516 5513 5511 5509 5507 5505 5504 5504 5503 5502 5501 5499 5497 5495 5493 5493 5492 5492 5491 5490 5490 5489 5488 5487 5486 5485 5484 5484 5483 5483 5482 5482 5481 5481 5480 5480 5479 5478 5478 5477 5477 5477 5477 5476 5476
5643 5642 5640 5638 5636 5634 5631 5629 5632 5628 5623 5623 5616 5613 5624 5625 5616 5611 5609 5607 5605 5601 5599 5597 5592 5589 5584 5581 5579 5577 5574 5571 5568 5564 5560 5557 5554 5550 5547 5543 5540 5537 5534 5530 5527 5524 5522 5519 5517 5515 5512 5510 5508 5505 5503 5502 5500 5498 5496 5496 5495 5493 5491 5490 5487 5485 5484 5484 5484 5483 5482 5481 5481 5480 5479 5478 5477 5476 5475 5474 5474 5473 5473 5472 5472 5471 5471 5470 5470 5469 5468 5468 5467 5468 5468 5467 5467